Preview of NWS' New Version of Forecast
This preview is not operational and should not be used for support decisions.

Regional Weather Roundup (RWR)

Issued by National Weather Service (NWS)

                            
000
ASCA42 TJSJ 210410
RWRPR 
PUERTO RICO/U.S. VIRGIN ISLANDS HOURLY WEATHER ROUNDUP
NATIONAL WEATHER SERVICE SAN JUAN PR
1200 AM AST TUE MAY 21 2019

PRZ001>002-007>008-010-210500-
PUERTO RICO
  
CITY           SKY/WX    TMP DP  RH WIND       PRES   REMARKS
SAN JUAN LMM   PTCLDY    79  73  83 CALM      30.00F                  
CEIBA          PTCLDY    81  72  74 SE7       30.02F                  
$$

VIZ001>002-210500-
U.S. VIRGIN ISLANDS
  
CITY           SKY/WX    TMP DP  RH WIND       PRES   REMARKS
CHARLOTTE AMA  PTCLDY    81  72  74 E12       30.00F                  
CHRISTIANSTED  MOCLDY    79  73  83 NE5       30.01F                  
$$

HOURLY WEATHER ROUNDUP FOR THE NEWS MEDIA
  
CITY           SKY/WX    TMP DP  RH WIND       PRES   REMARKS
ORLANDO        FAIR      76  70  82 SE8       30.00S                  
NEW YORK       FAIR      76  53  44 NW22G32   29.77R                  
NEWARK         FAIR      71  54  54 NW22      29.80R                  
CHICAGO        CLOUDY    47  35  63 VRB5      30.17R                  
HARTFORD       FAIR      61  61 100 SW6       29.69R                  
BOSTON         MOCLDY    73  62  68 W15       29.67R                  
DALLAS         MOCLDY    81  69  67 SE14G25   29.60F                  
PHILADELPHIA   FAIR      76  50  40 NW14      29.82R                  
LOS ANGELES    PTCLDY    59  51  75 W14       29.95R                  
WASHINGTON DC  FAIR      71  51  49 NW8       29.90R